Location: Unspecified
(0.0000°N, 1.0000°E)
Time: 20:10:44
(UTC+01:00)

Daily predictions for brighter satellites

Satellite Brightness Start Highest point End
(mag) Time Altitude Azimuth Time Altitude Azimuth Time Altitude Azimuth
GPS 2-14 Rocket1 3.1 19:26:32 10° SW 19:30:31 53° SSE 19:34:34 10° E
Cosmos 2369 4.4 19:25:05 10° NNW 19:30:41 63° WSW 19:36:21 10° S
Ariane H10-3 4.3 19:26:34 10° W 19:30:51 82° S 19:58:04 10° E
NOSS 3-2 (C) 4.3 19:23:08 10° N 19:31:03 56° ENE 19:39:00 10° SE
Ariane H10 3.9 19:30:17 10° WSW 19:33:27 42° S 19:42:37 10° E
Cosmos 1975 Rocket 3.4 19:30:06 10° NNE 19:34:10 42° E 19:38:16 10° SSE
Cosmos 1140 Rocket 3.8 19:29:35 10° S 19:34:26 43° ESE 19:39:16 10° NNE
Abrixas rocket 2.4 19:32:18 10° SSW 19:35:36 58° SE 19:38:53 10° NE
ISS -1.5 19:38:20 10° NNE 19:40:12 14° NE 19:42:04 10° E
ARIANE 5 DEB (SYLDA) 3.6 19:29:11 10° W 19:41:56 72° N 19:44:47 11° E
Intelsat 5-1 Rocket 3.2 19:43:03 10° WSW 19:44:50 19° SSW 19:47:02 10° SSE
Meteor 1-11 Rocket 4.1 19:40:01 10° SSE 19:45:16 42° E 19:50:35 10° NNE
Delta 7925 Rocket 3.6 19:43:52 10° NW 19:48:33 54° NNE 19:54:06 10° ESE
Aurora 2 Rocket 4.0 19:48:00 10° WSW 19:50:24 20° SSW 19:52:55 10° SSE
Hubble Space Telescope 1.8 19:47:37 10° W 19:51:31 40° NNW 19:55:24 10° NE
Cosmos 1954 Rocket 4.2 19:46:37 10° SSW 19:51:46 77° WNW 19:56:55 10° N
Cosmos 614 Rocket 4.1 19:49:20 10° S 19:54:21 52° ESE 19:59:18 10° NNE
Centaur Rocket 2.8 19:48:01 10° WNW 19:54:50 71° NNE 19:56:55 17° E
ALOS 3.0 19:53:42 10° SE 19:57:47 30° ENE 20:01:51 10° NNE
CENTAUR R/B 4.0 19:51:29 10° NNE 19:57:53 24° ENE 20:04:10 10° ESE
Cosmos 1633 2.4 19:57:02 10° S 20:00:42 79° E 20:04:21 10° N
FREGAT/IRIS 2.5 19:57:55 10° SSE 20:00:57 62° E 20:03:58 10° N
Okean 1 4.1 20:02:09 10° NNE 20:05:43 30° E 20:09:18 10° SSE
FENGYUN 3A 4.1 20:00:54 10° SE 20:05:52 38° ENE 20:10:48 10° N
BLOCK DM-SL R/B 2.9 20:02:49 10° W 20:06:35 90° SSE 20:10:49 19° E
Meteor 1-29 3.1 20:03:25 10° NNE 20:06:41 47° ESE 20:09:58 10° S
Cosmos 1300 Rocket 3.4 20:02:22 10° S 20:06:43 82° E 20:11:05 10° N
ARIANE 44L R/B 3.4 20:07:37 10° SW 20:09:27 23° SSE 20:11:25 15° SE
OAO 3 Rocket 3.3 20:05:50 10° SW 20:10:43 60° SE 20:13:22 26° ENE
Helios 1B rocket 2.3 20:07:07 10° NNE 20:11:15 85° ESE 20:15:24 10° S
ARIANE 44P R/B 2.8 20:02:14 10° W 20:12:22 71° N 20:13:53 30° E
HJ-1C 3.6 20:09:57 10° SSE 20:13:15 47° E 20:16:31 10° N
Cosmos 2084 3.4 20:08:59 10° NNW 20:13:16 83° ENE 20:17:52 10° SSE
MAQSAT/ARIANE V 3.6 19:56:42 10° W 20:15:23 51° SSW 20:18:01 19° SE
Cosmos 2219 3.1 20:13:36 10° S 20:19:18 73° ESE 20:25:01 10° NNE
GPS 2-15 Rocket1 3.5 20:17:09 10° SW 20:21:42 50° SSE 20:23:22 33° ESE
Star 63D 4.3 20:20:48 10° SW 20:24:31 41° SSE 20:24:39 41° SSE
Cosmos 1741 Rocket 4.0 20:21:42 10° SSW 20:26:59 82° WNW 20:32:13 10° N
BREEZE-M DEB (TANK) 3.5 20:25:59 10° SSW 20:30:05 33° SSE 20:30:05 33° SSE
Okean 1 Rocket 3.5 20:26:41 10° SSW 20:31:05 64° W 20:35:30 10° N
Cosmos 2227 Rocket 3.8 20:29:05 10° SSE 20:31:09 17° SE 20:31:09 17° SE
OTV 4 1.7 20:33:07 10° WSW 20:35:43 36° NW 20:35:43 36° NW
ARIANE 5 R/B 2.8 20:33:41 10° WSW 20:36:11 44° SSE 20:37:43 34° ESE
FengYun 1-2 T 4.2 20:35:28 10° SSE 20:41:00 86° WSW 20:46:28 10° NNW
SL-24 R/B 4.2 20:39:37 10° SSE 20:44:23 65° E 20:44:43 63° ENE
Atlas Centaur 2 2.2 20:39:54 10° SW 20:46:59 79° SSE 20:48:12 58° ENE
Meteor 2-13 Rocket 4.4 20:42:01 10° S 20:47:54 54° E 20:48:13 54° E
Cosmos 2327 Rocket 4.4 20:44:05 10° S 20:50:11 87° W 20:56:20 10° N
Cosmos 1980 Rocket 3.4 20:47:27 10° NW 20:52:47 43° WSW 20:58:09 10° S
Intercosmos 24 4.5 20:50:48 10° SSW 20:54:24 49° W 20:54:24 49° W
Resurs 01 Rocket 2.5 20:57:31 10° S 21:01:47 47° WSW 21:06:01 10° NNW
SEDSat Delta rocket 3.6 20:58:35 10° SW 21:05:05 85° SSE 21:05:07 85° SE
Cosmos 2181 Rocket 4.1 21:01:34 10° N 21:07:51 74° W 21:14:15 10° S
ISS 0.1 21:14:22 10° W 21:14:52 12° W 21:14:52 12° W
SL-16 R/B 4.5 21:15:48 10° NNW 21:16:16 13° NNW 21:16:16 13° NNW
H-2A ROCKET BODY 4.3 21:18:20 10° NW 21:19:23 13° NNW 21:19:23 13° NNW
Centaur D-1A AC-31 3.9 21:25:34 10° WSW 21:26:44 11° SW 21:27:23 11° SSW
CENTAUR R/B 3.8 21:40:31 10° NW 21:48:29 49° WSW 21:56:12 10° S
H-10 deb 4.2 21:40:38 10° W 21:58:07 52° SW 21:58:07 52° SW
